Weather History for KETH - May, 2013

Change the Weather History Date:

Sunday, May 19, 2013

  Actual Average Record
Temperature  
Mean Temperature 68 °F -  
Max Temperature 75 °F 73 °F 92 °F (1992)
Min Temperature 60 °F 49 °F 32 °F (2015)
Cooling Degree Days 2    
Growing Degree Days 18 (Base 50)    
Moisture  
Dew Point 62 °F    
Average Humidity 82    
Maximum Humidity 100    
Minimum Humidity 61    
Precipitation  
Precipitation 0.49 in - - ()
Sea Level Pressure  
Sea Level Pressure 29.61 in    
Wind  
Wind Speed 13 mph (SE)    
Max Wind Speed 23 mph    
Max Gust Speed 31 mph    
Visibility 9 miles    
Events Rain , Thunderstorm    
Averages and records for this station are not official NWS values.
T = Trace of Precipitation, MM = Missing Value Source: NWS Daily Summary

Daily Weather History Graph

Daily Weather History Graph

Search for Another Location

Airport or City:

Trip Planner

Search our weather history database for the weather conditions in past years. The results will help you decide how hot, cold, wet, or windy it might be!

Date:

Astronomy

May. 19, 2013 Rise Set
Actual Time 5:50 AM CDT 8:55 PM CDT
Civil Twilight 5:14 AM CDT 9:31 PM CDT
Nautical Twilight 4:28 AM CDT 10:17 PM CDT
Astronomical Twilight 3:33 AM CDT 11:13 PM CDT
Moon 2:43 PM CDT (5/19) 2:33 AM CDT (5/19)
Length of Visible Light 16h 17m
Length of Day
15h 05m
Waxing Gibbous, 65% of the Moon is Illuminated
May 19
Waxing Gibbous
May 24
Full
May 31
Last Quarter
Jun 8
New
Jun 16
First Quarter

Hourly Weather History & Observations

Time (CDT) Temp. Dew Point Humidity Pressure Visibility Wind Dir Wind Speed Gust Speed Precip Events Conditions
12:14 AM 66.2 °F 62.6 °F 88% 29.69 in 10.0 mi East 9.2 mph - N/A   Clear
12:34 AM 66.2 °F 60.8 °F 83% 29.69 in 7.0 mi East 10.4 mph - N/A   Clear
12:54 AM 66.2 °F 60.8 °F 83% 29.69 in 10.0 mi East 8.1 mph - N/A   Clear
1:14 AM 66.2 °F 60.8 °F 83% 29.69 in 10.0 mi ESE 9.2 mph - N/A   Scattered Clouds
1:34 AM 66.2 °F 60.8 °F 83% 29.69 in 10.0 mi ESE 10.4 mph - N/A   Scattered Clouds
1:54 AM 68.0 °F 60.8 °F 78% 29.69 in 10.0 mi ESE 12.7 mph - N/A   Mostly Cloudy
2:14 AM 68.0 °F 60.8 °F 78% 29.69 in 10.0 mi ESE 15.0 mph - N/A   Mostly Cloudy
2:34 AM 68.0 °F 60.8 °F 78% 29.68 in 10.0 mi ESE 15.0 mph - N/A   Mostly Cloudy
2:55 AM 69.8 °F 60.8 °F 73% 29.67 in 10.0 mi ESE 15.0 mph - N/A   Mostly Cloudy
3:14 AM 69.8 °F 62.6 °F 78% 29.67 in 10.0 mi ESE 15.0 mph - N/A   Mostly Cloudy
3:34 AM 69.8 °F 62.6 °F 78% 29.66 in 10.0 mi SE 15.0 mph - N/A Rain Light Rain
3:54 AM 64.4 °F 60.8 °F 88% 29.71 in 2.0 mi SSW 19.6 mph 28.8 mph 0.07 in Rain , Thunderstorm Heavy Thunderstorms and Rain
4:14 AM 62.6 °F 60.8 °F 94% 29.69 in 2.5 mi SSW 9.2 mph - 0.23 in Rain , Thunderstorm Heavy Thunderstorms and Rain
4:34 AM 62.6 °F 60.8 °F 94% 29.70 in 10.0 mi SE 3.5 mph - 0.27 in Rain Rain
4:54 AM 62.6 °F 60.8 °F 94% 29.68 in 10.0 mi East 8.1 mph - 0.34 in Rain , Thunderstorm Rain
5:15 AM 62.6 °F 60.8 °F 94% 29.64 in 10.0 mi ENE 8.1 mph - 0.06 in Rain Rain
5:34 AM 62.6 °F 60.8 °F 94% 29.61 in 10.0 mi NE 11.5 mph - 0.08 in Rain Light Rain
5:55 AM 60.8 °F 60.8 °F 100% 29.61 in 10.0 mi ENE 19.6 mph - 0.08 in   Scattered Clouds
6:15 AM 60.8 °F 60.8 °F 100% 29.61 in 10.0 mi East 19.6 mph - N/A Thunderstorm Mostly Cloudy
6:35 AM 60.8 °F 60.8 °F 100% 29.60 in 10.0 mi East 17.3 mph - N/A   Scattered Clouds
7:14 AM 62.6 °F 60.8 °F 94% 29.60 in 10.0 mi East 10.4 mph - N/A   Mostly Cloudy
7:34 AM 62.6 °F 60.8 °F 94% 29.60 in 10.0 mi East 12.7 mph - N/A   Mostly Cloudy
7:54 AM 62.6 °F 60.8 °F 94% 29.61 in 10.0 mi ESE 11.5 mph - N/A   Mostly Cloudy
8:15 AM 62.6 °F 60.8 °F 94% 29.60 in 10.0 mi East 11.5 mph - N/A   Scattered Clouds
8:35 AM 64.4 °F 62.6 °F 94% 29.61 in 10.0 mi ESE 18.4 mph - N/A   Scattered Clouds
8:55 AM 64.4 °F 62.6 °F 94% 29.62 in 10.0 mi SE 20.7 mph - N/A   Overcast
9:14 AM 64.4 °F 62.6 °F 94% 29.61 in 7.0 mi ESE 13.8 mph - N/A   Overcast
9:35 AM 66.2 °F 64.4 °F 94% 29.61 in 7.0 mi SE 19.6 mph - N/A   Mostly Cloudy
9:55 AM 69.8 °F 66.2 °F 88% 29.61 in 7.0 mi SE 23.0 mph 26.5 mph N/A   Mostly Cloudy
10:14 AM 69.8 °F 64.4 °F 83% 29.61 in 7.0 mi SSE 21.9 mph 27.6 mph N/A   Mostly Cloudy
10:34 AM 69.8 °F 64.4 °F 83% 29.60 in 10.0 mi SE 23.0 mph 31.1 mph N/A   Mostly Cloudy
10:55 AM 69.8 °F 64.4 °F 83% 29.60 in 10.0 mi SE 20.7 mph 27.6 mph N/A   Mostly Cloudy
11:15 AM 69.8 °F 64.4 °F 83% 29.60 in 10.0 mi SSE 19.6 mph 26.5 mph N/A   Mostly Cloudy
11:34 AM 71.6 °F 64.4 °F 78% 29.59 in 10.0 mi SSE 20.7 mph 26.5 mph N/A   Scattered Clouds
11:54 AM 71.6 °F 62.6 °F 73% 29.59 in 10.0 mi SSE 19.6 mph 25.3 mph N/A   Scattered Clouds
12:14 PM 73.4 °F 62.6 °F 69% 29.59 in 10.0 mi SSE 15.0 mph 25.3 mph N/A   Scattered Clouds
12:35 PM 73.4 °F 62.6 °F 69% 29.59 in 10.0 mi South 20.7 mph 29.9 mph N/A   Clear
12:55 PM 73.4 °F 62.6 °F 69% 29.59 in 10.0 mi SSE 16.1 mph 27.6 mph N/A   Scattered Clouds
1:14 PM 73.4 °F 62.6 °F 69% 29.59 in 10.0 mi South 15.0 mph 27.6 mph N/A   Scattered Clouds
1:34 PM 73.4 °F 62.6 °F 69% 29.59 in 10.0 mi South 20.7 mph 26.5 mph N/A   Scattered Clouds
2:15 PM 73.4 °F 62.6 °F 69% 29.59 in 10.0 mi South 15.0 mph 26.5 mph N/A   Scattered Clouds
2:34 PM 73.4 °F 60.8 °F 65% 29.59 in 10.0 mi South 16.1 mph 24.2 mph N/A   Scattered Clouds
2:54 PM 75.2 °F 60.8 °F 61% 29.59 in 10.0 mi South 16.1 mph 25.3 mph N/A   Scattered Clouds
3:14 PM 75.2 °F 60.8 °F 61% 29.59 in 10.0 mi SSW 16.1 mph 20.7 mph N/A   Scattered Clouds
3:35 PM 73.4 °F 60.8 °F 65% 29.60 in 10.0 mi South 16.1 mph 21.9 mph N/A   Scattered Clouds
3:55 PM 73.4 °F 60.8 °F 65% 29.61 in 10.0 mi SSW 13.8 mph 23.0 mph N/A   Scattered Clouds
4:14 PM 73.4 °F 60.8 °F 65% 29.61 in 10.0 mi SSW 11.5 mph 16.1 mph N/A   Scattered Clouds
4:34 PM 73.4 °F 60.8 °F 65% 29.61 in 10.0 mi SSW 11.5 mph - N/A   Scattered Clouds
4:55 PM 73.4 °F 60.8 °F 65% 29.60 in 10.0 mi South 12.7 mph - N/A   Clear
5:15 PM 73.4 °F 60.8 °F 65% 29.59 in 10.0 mi SSE 9.2 mph - N/A   Clear
5:34 PM 73.4 °F 60.8 °F 65% 29.59 in 10.0 mi South 9.2 mph - N/A   Clear
5:54 PM 73.4 °F 60.8 °F 65% 29.58 in 10.0 mi South 10.4 mph - N/A   Clear
6:14 PM 73.4 °F 60.8 °F 65% 29.57 in 10.0 mi SSE 8.1 mph - N/A   Clear
6:35 PM 73.4 °F 62.6 °F 69% 29.57 in 10.0 mi SSE 6.9 mph - N/A   Clear
6:54 PM 71.6 °F 62.6 °F 73% 29.57 in 10.0 mi SE 8.1 mph - N/A   Clear
7:15 PM 71.6 °F 62.6 °F 73% 29.57 in 10.0 mi SE 9.2 mph - N/A   Clear
7:34 PM 69.8 °F 62.6 °F 78% 29.56 in 10.0 mi SE 8.1 mph - N/A   Clear
7:54 PM 69.8 °F 62.6 °F 78% 29.56 in 10.0 mi East 10.4 mph - N/A   Clear
8:15 PM 68.0 °F 62.6 °F 83% 29.56 in 10.0 mi East 12.7 mph - N/A   Scattered Clouds
8:34 PM 66.2 °F 62.6 °F 88% 29.57 in 10.0 mi ESE 11.5 mph - N/A   Scattered Clouds
8:54 PM 64.4 °F 62.6 °F 94% 29.57 in 10.0 mi SE 10.4 mph - N/A   Overcast
9:15 PM 64.4 °F 62.6 °F 94% 29.59 in 10.0 mi SE 8.1 mph - N/A   Overcast
9:35 PM 64.4 °F 60.8 °F 88% 29.59 in 10.0 mi East 9.2 mph - N/A   Overcast
9:54 PM 64.4 °F 60.8 °F 88% 29.59 in 7.0 mi East 6.9 mph - N/A   Overcast
10:15 PM 62.6 °F 60.8 °F 94% 29.59 in 10.0 mi East 5.8 mph - N/A Rain Light Rain
10:35 PM 62.6 °F 60.8 °F 94% 29.58 in 4.0 mi ESE 6.9 mph - N/A   Scattered Clouds
11:14 PM 62.6 °F 60.8 °F 94% 29.57 in 7.0 mi ESE 4.6 mph - N/A   Overcast
11:34 PM 62.6 °F 60.8 °F 94% 29.56 in 7.0 mi ENE 4.6 mph - N/A   Overcast
11:54 PM 62.6 °F 60.8 °F 94% 29.56 in 10.0 mi ENE 3.5 mph - N/A   Overcast